www.pogodaiklimat.ru

Погода и климат >> Архив погоды >> Буркина-Фасо >> Boromo


ПОГОДА в Boromo

  • Прогноз погоды в Boromo
  • Монитор погоды в Boromo
  • Климат города

АРХИВ ПОГОДЫ в Boromo

Время (UTC), дата Ветер
(напр.,м/с)
 
Видим.   Явления Облачность Т
(С)
Тd
(С)
f
(%)
Тe
(С)
Тes
(С)
Комфортность P
(гПа)
Po
(гПа)
Тmin
(С)
Tmax
(С)
R
(мм)
R24
(мм)
S
(см)
06 19.04 ЮЗ 2 8000 м пыль 9/0
[Ci sp]
+28.7 +16.8 49 +32 +32 душно 1006.7 977.2 +28.4
09 19.04 З 4 10 км 9/0
[Ci sp]
+34.6 +19.7 42 +40 +46 очень
душно
1008.5 977.9
12 19.04 ЮЗ 2 10 км 9/1 600 м
[Sc Ci sp]
+39.2 +19.5 32 +44 +60 опасность
перегрева
1006.5 977.1
15 19.04 штиль 0 10 км 9/3 600 м
[Cu Sc Ci sp]
+40.8 +14.9 22 +42 +52 опасность
перегрева
1003.2 973.9
18 19.04 штиль 0 10 км 9/1 600 м
[Sc Ci sp]
+39.9 +14.6 23 +41 +41 опасность
перегрева
1002.8 973.4 +42.0
00 20.04 штиль 0 10 км 9/0
[Ci sp]
+32.4 +16.4 38 +35 +35 душно 1005.3 976.0
03 20.04 штиль 0 10 км 9/0
[Ci sp]
+30.8 +17.4 45 +35 +35 очень
душно
1004.2 974.9
06 20.04 ЮЗ 2 10 км 9/0
[Ac trans Ci sp]
+30.6 +19.2 51 +36 +36 очень
душно
1005.6 976.2 +30.0
12 20.04 Ю 2 10 км 9/1 600 м
[Sc Ci sp]
+38.8 +21.2 36 +45 +62 опасность
перегрева
1006.5 977.1
15 20.04 Ю 3 10 км 9/4 600 м
[Cu Sc Ac cuf Ci sp]
+41.5 +18.2 26 +45 +48 опасность
перегрева
1003.3 974.0
18 20.04 штиль 0 10 км 9/1 600 м
[Sc Ac cuf Ci sp]
+39.6 +18.9 30 +44 +44 опасность
перегрева
1003.0 973.7 +42.0
00 21.04 З 1 10 км 9/0
[Ac As Ci sp]
+34.4 +18.9 40 +39 +39 очень
душно
1004.9 975.7
03 21.04 штиль 0 10 км 9/0
[Ac As Ci sp]
+32.6 +20.1 48 +39 +39 очень
душно
1004.1 974.9
06 21.04 Ю 1 10 км 9/0
[Ac As Ci sp]
+30.8 +20.3 54 +38 +38 очень
душно
1005.7 976.3 +30.7
09 21.04 Ю 4 10 км 9/0
[Ci sp]
+33.4 +21.2 49 +41 +47 опасность
перегрева
1007.4 977.9
12 21.04 ЮЗ 3 10 км 9/0
[Ci sp]
+38.5 +19.5 33 +43 +58 опасность
перегрева
1006.4 977.1
15 21.04 В 3 10 км 9/4 570 м
[Cu Sc Ci sp]
+41.8 +17.6 25 +45 +50 опасность
перегрева
1003.6 974.4
18 21.04 Ю 4 10 км 9/1 600 м
[Sc Ac As Ci sp]
+36.3 +16.8 32 +39 +39 очень
душно
1004.6 975.0 +42.0
00 22.04 Ю 3 10 км 9/0
[Ci sp]
+31.0 +19.5 50 +37 +37 очень
душно
1008.4 978.9
03 22.04 ЮВ 3 10 км 9/0
[Ci sp]
+29.3 +20.8 60 +36 +36 очень
душно
1006.8 977.4
06 22.04 ЮЗ 2 10 км 9/0
[Ac As Ci sp]
+28.7 +21.1 64 +36 +36 очень
душно
1007.7 978.0 +28.5
09 22.04 ЮЗ 3 10 км 9/0
[Ci sp]
+31.6 +20.6 52 +39 +46 очень
душно
1009.7 979.9
12 22.04 Ю 3 10 км 9/0
[Ci sp]
+37.2 +20.2 37 +43 +58 опасность
перегрева
1008.0 978.4
15 22.04 ЮЗ 2 10 км 9/1 600 м
[Sc Ci sp]
+40.0 +18.7 29 +44 +53 опасность
перегрева
1004.9 975.5
18 22.04 Ю 2 10 км 9/1 600 м
[Cu Sc Ac trans Ci sp]
+38.3 +18.6 32 +42 +43 опасность
перегрева
1004.7 975.1 +41.0
00 23.04 ЮЗ 1 10 км зарница 9/1 1200 м
[Cb cap Ci sp]
+33.8 +20.2 45 +40 +40 очень
душно
1007.5 978.1
03 23.04 СВ 6 10 км зарница 9/1 1200 м
[Cb cap Ac As Ci sp]
+29.8 +20.5 57 +37 +37 очень
душно
1008.1 978.6
06 23.04 В 3 10 км гроза, ливневой дождь 10/3 600 м
[Cb cap Ac As]
+22.8 +21.6 93 +30 +30 очень
душно
1014.9 984.7 +22.4 4
09 23.04 ЮЗ 5 10 км в посл. час гроза {дождь} 9/0
[Ac As]
+24.8 +19.0 70 +30 +31 душно 1010.3 980.3
12 23.04 Ю 2 10 км 9/0
[Ac trans Ci sp]
+34.1 +19.4 42 +39 +52 опасность
солнечного
удара
1009.0 979.4 12
15 23.04 З 4 15 км 9/0
[Ac trans Ci sp]
+36.6 +18.4 34 +40 +47 очень
душно
1006.3 976.7
18 23.04 З 2 15 км 9/0
[Ci sp]
+34.1 +22.1 50 +43 +43 опасность
перегрева
1006.3 976.2 +36.9 12
00 24.04 штиль 0 10 км 9/0
[Ci sp]
+28.0 +24.3 80 +39 +39 очень
душно
1009.1 979.2
03 24.04 штиль 0 10 км 9/0
[Ci sp]
+27.0 +23.4 81 +37 +37 очень
душно
1007.5 977.8
06 24.04 Ю 3 10 км 9/0
[Ac cast Ci sp]
+27.6 +21.6 70 +35 +35 очень
душно
1009.8 979.9 +26.1 12
09 24.04 Ю 6 15 км 9/0
[Ci sp]
+29.9 +20.8 58 +37 +40 очень
душно
1011.9 981.9
12 24.04 ЮЗ 4 15 км 9/0
[Ci sp]
+34.6 +21.2 46 +42 +54 опасность
перегрева
1010.1 980.2
15 24.04 З 3 15 км 9/1 600 м
[Sc Ac cast Ci sp]
+36.9 +22.1 43 +46 +51 опасность
перегрева
1007.0 977.3
18 24.04 ЮЗ 1 15 км 9/0
[Ac cast Ci sp]
+35.2 +22.1 47 +44 +44 опасность
перегрева
1006.2 976.4 +37.3
00 25.04 штиль 0 10 км 9/0
[Ac As Ci sp]
+31.4 +23.5 63 +42 +42 опасность
перегрева
1008.2 978.5
03 25.04 ЮЗ 2 10 км 9/0
[Ac As Ci sp]
+30.0 +22.8 65 +40 +40 очень
душно
1006.9 977.3
06 25.04 ЮЗ 2 15 км 9/0
[Ac As Ci sp]
+28.4 +21.0 64 +36 +36 очень
душно
1007.9 978.2 +28.1
09 25.04 ЮЗ 4 10 км 9/0
[Ci sp]
+32.2 +18.5 44 +37 +42 очень
душно
1008.9 979.2
12 25.04 штиль 0 15 км 9/0
[Ac trans Ci sp]
+37.8 +20.1 36 +44 +67 опасность
перегрева
1007.5 978.0
15 25.04 СЗ 2 15 км 9/3 600 м
[Cu Sc Ci sp]
+40.1 +17.8 27 +43 +50 опасность
перегрева
1003.9 974.5
18 25.04 С 2 15 км 9/1 600 м
[Cu Sc Ci sp]
+37.3 +17.6 31 +40 +40 очень
душно
1003.5 973.9 +40.5
00 26.04 ЮЗ 3 10 км {гроза} 10/0
[Ac As]
+30.1 +19.5 53 +36 +36 очень
душно
1007.7 978.2
03 26.04 Ю 3 10 км 9/0
[Ci sp]
+27.8 +20.7 65 +35 +35 очень
душно
1007.0 977.5

 

Местоположение метеостанции Boromo (Буркина-Фасо): широта 11.75 долгота -2.93 высота над уровнем моря 271 м.

В архиве по умолчанию представлена погода в Boromo за последнюю неделю. Архивные данные за месяц целиком и за предыдущие месяцы, начиная с января 2011 года, Вы можете получить, выбрав интересующий диапазон дат из раскрывающегося списка и нажав кнопку "Ввод!".

Внимание! Время в таблицах - всемирное. Для получения местного времени необходимо прибавить поправку, которая в Boromo равна 0 ч.

Смотрите также архив погоды в соседних городах и на ближайших метеорологических станциях:

Погода в Dedougou (Буркина-Фасо) (100 км)
Погода в Gaoua (Буркина-Фасо) (160 км)
Погода в Bobo-Dioulasso (Буркина-Фасо) (165 км)
Погода в Ouagadougou (Буркина-Фасо) (167 км)
Погода в Wa (Гана) (195 км)
Погода в Po (Буркина-Фасо) (205 км)
Погода в Ouahigouya (Буркина-Фасо) (210 км)
Погода в Navrongo (Гана) (221 км)
Погода в San (Мали) (271 км)
Погода в Koutiala (Мали) (285 км)

Пояснения к столбцам:

Ветер - указаны скорость ветра в м/с - средняя за 10 мин, порывы в срок и между сроками (в фигурных скобках) и направление, откуда дует ветер: С - северный, СВ - северо-восточный, В - восточный, ЮВ - юго-восточный, Ю - южный, ЮЗ - юго-западный, З - западный, СЗ - северо-западный.
Видимость - горизонтальная дальность видимости в метрах или километрах. При видимости от 1 до 10 км при отсутствии осадков обычно наблюдается дымка, при ухудшении видимости до 1 км и менее - туман. В сухую погоду видимость может ухудшаться дымом, пылью или мглою.
Явления - указаны атмосферные явления, наблюдавшиеся в срок или в последний час перед сроком; фигурными скобками обозначены явления, наблюдавшиеся между сроками (за 1-3 часа до срока); квадратными скобками обозначены град или гололедные отложения с указанием их диаметра в мм.
Облачность - указаны через наклонную черту общая и нижняя облачность в баллах и высота нижней границы облаков в метрах; квадратными скобками обозначены формы облаков: Ci - перистые, Cs - перисто-слоистые, Cc - перисто-кучевые, Ac - высококучевые, As - высокослоистые, Sc - слоисто-кучевые, Ns - слоисто-дождевые, Cu - кучевые, Cb - кучево-дождевые. Подробнее классификацию облаков см. в Атласе облаков (PDF).
T - Температура воздуха - температура, измеренная на высоте 2 м над землей.
Td - Температура точки росы - температура, при понижении до которой содержащийся в воздухе водяной пар достигнет насыщения.
f - Относительная влажность воздуха - влажноcть воздуха, измеренная на высоте 2 м над землей.
Te - Эффективная температура - температура, которую ощущает одетый по сезону человек в тени. Характеристика душности погоды. При расчете учитывается влияние влажности воздуха и скорости ветра на теплоощущения человека.
Tes - Эффективная температура на солнце - температура, которую ощущает человек, с поправкой на солнечный нагрев. Характеристика знойности погоды. Зависит от высоты солнца над горизонтом, облачности и скорости ветра. Ночью, в пасмурную погоду, а также при ветре 12 м/с и более поправка равна нулю.
P - Атмосферное давление - приведенное к уровню моря атмосферное давление.
Po - Атмосферное давление - измеренное на уровне метеостанции атмосферное давление.
Tmin - Минимальная температура - минимум температуры воздуха на высоте 2 м над землей.
Tmax - Максимальная температура - максимум температуры воздуха на высоте 2 м над землей.
R - Количество осадков - Количество выпавших осадков за период времени, мм. При наведении курсора мыши на число - период времени, за который выпало указанное количество осадков.
R24 - Количество осадков - Количество выпавших осадков за 24 часа, мм.
S - Снежный покров - Высота снежного покрова, см. При наведении курсора мыши на число - состояние снежного покрова и степень покрытия местности в баллах.